Back to catalog

FLOCK 4G 24

AliveScienceSSO
NORAD 62637·PAYLOAD·🇺🇸 United States

Launched Jan 14, 2025 from Vandenberg Space Force Base

Loading…

Next Passes (next 24 hours)

TLE

FreshSource: CelesTrak SupGP

Epoch: Sep 14, 2026, 12:45 UTC

1 62637C 25009AE  26257.53136574  .00010552  00000+0  34895-3 0  2577
2 62637  97.3976 339.5459 0002319   4.5183 122.8149 15.31398779    12

Track FLOCK 4G 24 in real time with AllMySat

Download on the App Store